Lid_Strength_Index
18 18 17 17 17 17 16 15 15 14 14 15 14 15 14 14 13 11 11 11 7 6
18 18 18 18 17 17 16 15 15 15 15 14 14 14 15 15 14 13 12 11 10 6
18 18 17 17 18 17 17 16 16 16 16 15 14 14 14 15 15 14 13 12 11 11
18 17 17 17 17 17 17 17 16 16 16 16 15 15 14 14 15 15 13 12 13 12
17 17 18 17 17 17 17 16 16 16 16 16 15 14 15 14 14 15 16 15 13 13
18 18 18 18 17 17 17 16 16 16 16 16 15 15 14 14 13 14 14 15 14 13
20 19 18 18 17 17 17 17 17 16 15 15 15 14 14 13 13 13 13 15 14 13
20 19 18 18 17 17 17 17 16 16 15 15 15 14 14 13 13 12 13 13 14 14
24 20 19 17 17 17 17 17 16 16 16 16 14 12 11 11 12 12 12 13 13 14
26 23 19 17 18 18 18 17 17 16 16 15 15 12 11 10 11 11 11 12 13 14
26 24 21 19 18 18 18 18 17 16 15 15 14 12 11 10 11 11 11 11 12 13
24 24 25 23 21 19 18 18 17 16 15 15 14 11 11 11 12 11 11 11 10 12
25 26 26 25 23 20 18 17 15 15 14 13 14 11 11 11 11 12 11 10 9 9
25 25 25 26 26 21 19 17 17 16 14 14 12 12 10 10 11 11 11 11 10 9